World > North America > United States > New York > Middleburg

Middleburg, NY Hourly Weather Conditions

Feedback E-mail the Weather

Quick WX

WeatherWX.com

Middleburg, NY Weather Maps

°F °C°F °C
Middleburg Weather Map
UTC Time: 3/24/2023, 10:01
Your Time:

Middleburg, NY Regional Weather

Expires:202303241000;;568434
ASUS41 KALY 240910
RWRALY

NEW YORK STATE HOURLY WEATHER ROUNDUP
NATIONAL WEATHER SERVICE ALBANY NY
500 AM EDT FRI MAR 24 2023

NOTE: "FAIR" INDICATES FEW OR NO CLOUDS BELOW 12,000 FEET WITH NO
SIGNIFICANT WEATHER AND/OR NO OBSTRUCTIONS TO VISIBILITY.


NYZ032-033-038>043-046>054-057>066-NYZ062>081-082-084-241000-
EAST

  
CITY           SKY/WX    TMP DP  RH WIND       PRES   REMARKS
ALBANY         MOCLDY    37  28  70 W15       29.91S WCI  28          
GLENS FALLS    MOCLDY    38  28  67 N8        29.88R WCI  32          
POUGHKEEPSIE   MOCLDY    40  31  70 N10       29.88R WCI  33          
NEWBURGH       CLEAR     41  30  65 NW12G23   29.89R                  
MONTGOMERY     MOCLDY    40  28  62 NW7       29.89R                  
WHITE PLAINS   MOCLDY    46  29  51 NW16      29.85R                  
ISLIP          MOCLDY    48  36  63 NW7       29.84R                  
NEW YORK CITY  CLOUDY    50  31  48 NW18G25   29.87R                  
CENTRAL PARK   CLOUDY    50  33  52 NW7       29.90R                  
$$


SKY/WX - Weather  TMP - Temperature  DP - Dew Point  RH - Humidity
WIND - Wind Direction/Speed PRES - Barometric Pressure VSB - Visibility
WCI - Wind Chill Index E13G22 Wind - East Wind 13 mph/Gusts of 22 mph

Trending Headlines

Trending Entertainment Headlines

Middleburg Radar Loop

Use the map search tool if you want to place a location marker on the radar map...

Middleburg Quick Facts

National Two Day Weather Forecast


E-mail the Middleburg Weather Forecast

Voice your opinion or tell us about page issues...